TimeEDT,TemperatureF,Dew PointF,Humidity,Sea Level PressureIn,VisibilityMPH,Wind Direction,Wind SpeedMPH,Gust SpeedMPH,PrecipitationIn,Events,Conditions,WindDirDegrees,DateUTC
12:56 AM,44.1,17.1,34,30.06,10.0,SE,11.5,-,N/A,,Mostly Cloudy,130,2013-04-07 04:56:00
1:56 AM,45.0,17.1,33,30.03,10.0,SE,10.4,17.3,N/A,,Overcast,140,2013-04-07 05:56:00
2:56 AM,45.0,17.1,33,30.01,10.0,SSE,11.5,16.1,N/A,,Overcast,150,2013-04-07 06:56:00
3:56 AM,44.1,18.0,35,29.99,10.0,SE,8.1,17.3,N/A,,Clear,140,2013-04-07 07:56:00
4:56 AM,44.1,19.0,37,29.98,10.0,SE,8.1,-,N/A,,Clear,130,2013-04-07 08:56:00
5:56 AM,44.1,19.9,38,29.97,10.0,SE,8.1,-,N/A,,Clear,140,2013-04-07 09:56:00
6:56 AM,45.0,21.0,39,29.95,10.0,SSE,6.9,-,N/A,,Partly Cloudy,150,2013-04-07 10:56:00
7:56 AM,46.9,23.0,39,29.94,10.0,SSE,9.2,-,N/A,,Overcast,150,2013-04-07 11:56:00
8:56 AM,50.0,24.1,36,29.93,10.0,South,8.1,18.4,N/A,,Clear,180,2013-04-07 12:56:00
9:56 AM,57.0,28.9,34,29.90,10.0,SSW,11.5,27.6,N/A,,Clear,210,2013-04-07 13:56:00
10:56 AM,61.0,33.1,35,29.88,10.0,SW,18.4,32.2,N/A,,Mostly Cloudy,220,2013-04-07 14:56:00
11:56 AM,60.1,34.0,38,29.88,10.0,SW,23.0,35.7,N/A,,Overcast,230,2013-04-07 15:56:00
12:56 PM,61.0,35.1,38,29.88,10.0,SW,19.6,32.2,N/A,,Mostly Cloudy,230,2013-04-07 16:56:00
1:56 PM,62.1,36.0,38,29.88,10.0,SSW,19.6,32.2,N/A,,Clear,210,2013-04-07 17:56:00
2:56 PM,64.9,37.9,37,29.86,10.0,SW,24.2,34.5,N/A,,Clear,220,2013-04-07 18:56:00
3:56 PM,66.9,37.0,33,29.86,10.0,WSW,20.7,28.8,N/A,,Scattered Clouds,240,2013-04-07 19:56:00
4:56 PM,64.9,37.0,36,29.86,10.0,SW,16.1,25.3,N/A,,Mostly Cloudy,220,2013-04-07 20:56:00
5:56 PM,66.0,37.0,34,29.87,10.0,WSW,20.7,26.5,N/A,,Mostly Cloudy,240,2013-04-07 21:56:00
6:56 PM,64.0,37.0,37,29.88,10.0,West,9.2,-,N/A,,Overcast,270,2013-04-07 22:56:00
7:56 PM,63.0,37.0,38,29.90,10.0,WSW,16.1,27.6,N/A,,Overcast,250,2013-04-07 23:56:00
8:56 PM,57.9,41.0,53,29.94,10.0,NW,8.1,-,N/A,,Partly Cloudy,320,2013-04-08 00:56:00
9:56 PM,54.0,39.0,57,29.96,10.0,West,5.8,-,N/A,,Partly Cloudy,280,2013-04-08 01:56:00
10:56 PM,51.1,39.9,66,29.98,10.0,NNW,3.5,-,N/A,,Clear,330,2013-04-08 02:56:00
11:56 PM,48.9,37.9,66,29.99,10.0,WNW,4.6,-,N/A,,Clear,290,2013-04-08 03:56:00